sat.trackr.live / text

‹ back to catalog

STARLINK-3942

NORAD 52563 · 2022-051AG

PAYLOAD ACTIVE UNKNOWN

§ Identity

Operator
Country
US
Launch date
2022-05-13
Launch site
AFWTR
Launch vehicle
Mass (kg)
RCS (m²)

Purposes: comms

External: N2YO · Heavens-Above · Gunter

§ Orbital elements

Epoch: 2026-09-19T19:36:53.608896Z

Period
93.79 min
Inclination
53.1606°
Eccentricity
0.0001065
Mean motion
15.35404037 rev/d
Perigee alt
459.0 km
Apogee alt
460.4 km
Semi-major
6,837.9 km
B*
4.0067e-5
RAAN
329.0245°
Arg perigee
95.8721°
Mean anomaly
264.2404°
Rev number
24,086

§ Raw data

STARLINK-39421 52563U 22051AG  26262.81728714  .00001018  00000+0  40067-4 0  99972 52563  53.1606 329.0245 0001065  95.8721 264.2404 15.35404037240867

JSON: /api/v1/satellites/52563 · /tle

For live sub-satellite position, see the globe view (requires WebGL).

§ Visibility from observer

Set your observer location to see the next 7 days of passes ≥ 10°. The values pass through the URL so the page stays shareable.

No JS? Fill the form by hand. The geolocation button needs JavaScript.